SCP
0 -0 0 0 0 0 0 0 0 0 0 0 0 0 0 0 0 0 0 0 -0 -0 -0 -0 -0 -0 -0 -0 -0 -0 -0 -0 -0
0 0 0 0 0 0 0 0 0 0 0 0 0 0 0 0 0 0 0 0 -0 -0 -0 -0 -0 -0 -0 -0 -0 -0 -0 -0 -0
0 0 0 0 0 0 0 0 0 0 0 0 0 0 0 0 0 0 0 0 0 -0 -0 -0 -0 -0 -0 -0 -0 -0 -0 -0 -0
0 0 0 0 0 0 0 0 0 0 0 0 0 0 0 0 0 0 0 0 0 0 -0 -0 -0 -0 -0 -0 -0 0 0 0 0
0 0 0 0 0 0 0 0 0 0 0 0 0 0 0 0 0 0 0 0 0 0 0 -0 -0 -0 0 0 0 0 0 0 0
0 0 0 0 0 0 0 0 0 0 0 0 0 0 0 0 0 0 0 0 0 0 0 0 0 0 0 0 0 0 0 0 0
0 0 0 0 0 0 0 0 0 0 0 0 0 0 0 0 0 0 0 0 0 0 0 0 0 0 0 0 0 0 0 0 0
0 0 0 0 0 0 0 0 0 0 0 0 0 0 0 0 0 0 0 0 0 0 0 0 0 0 0 0 0 0 0 0 0
0 0 0 0 0 0 0 0 0 0 0 0 0 0 0 0 0 0 -0 0 0 0 0 0 0 0 0 0 0 0 0 0 0
0 0 0 0 0 0 0 0 0 0 0 0 0 0 0 0 0 0 -0 -0 -0 -0 0 0 0 0 0 0 0 0 0 0 0
0 -0 0 0 0 0 0 0 0 0 0 0 0 0 0 0 0 0 0 -0 -0 -0 -0 0 0 0 0 0 0 0 0 0 0
-0 0 0 0 0 0 0 0 0 0 0 0 0 0 0 0 0 0 0 0 -0 -0 -0 -0 0 0 0 0 0 0 0 0 0
-0 0 0 0 0 0 0 0 0 0 0 0 0 0 0 0 0 -0 -0 -0 -0 0 -0 0 0 0 0 0 0 0 0 0 0
0 0 0 0 0 0 0 0 0 0 0 0 0 0 0 0 -0 -0 -0 -0 -0 -0 -0 0 0 0 0 0 0 0 0 0 0
0 0 0 0 0 0 0 0 0 0 0 0 0 0 0 0 -0 -0 -0 -0 -0 -0 0 0 0 0 0 0 0 0 0 0 0
0 0 0 0 0 0 0 0 0 0 0 0 0 0 0 -0 -0 -0 -0 -0 -0 0 0 0 0 0 0 0 0 0 0 0 0
0 0 0 0 0 0 0 0 0 0 0 0 0 0 0 -0 -0 -0 -0 -0 -0 -0 0 0 0 0 0 0 0 0 0 0 0
0 0 0 0 0 0 0 0 0 0 0 0 0 0 0 0 0 -0 -0 -0 -0 -0 -0 0 0 0 0 0 0 0 0 0 0
0 0 0 0 0 -0 0 0 0 0 0 0 0 0 0 0 0 -0 -0 -0 -0 -0 0 0 0 0 0 0 0 0 0 0 0
0 0 0 0 0 0 0 0 0 0 0 0 0 0 0 0 0 0 0 0 -0 -0 0 0 0 0 0 0 0 0 0 0 0
Wind_Speed_500mb
18 21 23 24 24 27 33 32 34 35 34 29 34 33 26 28 28 37 40 38 34 36 32 38 33 34 31 30 30 26 22 22 16
18 20 20 24 26 28 30 32 32 30 26 24 28 31 31 29 30 30 36 34 29 28 32 32 31 31 31 29 29 27 24 24 22
18 19 19 21 24 26 27 29 27 25 23 25 24 22 28 28 30 28 25 28 29 27 27 28 29 29 29 29 27 26 25 25 22
17 18 18 19 22 22 23 25 26 26 23 24 24 21 28 26 27 26 24 27 25 25 26 27 28 29 26 27 26 26 25 25 23
16 17 16 17 17 17 19 20 22 23 22 23 22 18 22 22 24 23 20 22 22 22 23 24 25 23 24 24 24 23 23 23 22
16 14 14 14 13 13 15 16 18 18 18 20 20 18 17 18 20 19 18 17 17 17 17 21 21 21 23 21 21 21 21 19 19
15 14 13 13 13 12 14 16 16 16 15 16 17 17 16 16 18 16 16 15 13 13 14 18 20 21 22 20 21 22 20 19 19
14 14 13 12 13 13 12 13 15 16 16 16 16 16 16 16 15 14 14 14 13 13 15 17 20 21 20 20 20 21 21 21 20
16 15 12 11 11 12 12 13 14 17 17 17 17 16 16 17 15 13 13 15 16 16 16 18 18 19 19 18 18 18 19 19 19
15 12 13 12 12 12 12 14 14 16 15 15 14 14 12 13 14 14 14 14 15 16 16 16 15 16 15 14 15 15 16 16 17
18 18 16 14 14 13 13 14 15 16 16 16 14 14 14 14 13 14 15 16 16 16 15 13 11 11 10 10 10 10 11 11 12
24 22 17 15 15 16 16 17 17 17 17 16 16 15 13 15 16 15 16 18 17 14 14 11 8 7 5 5 5 7 9 10 12
30 26 20 18 18 18 19 19 18 17 16 15 16 15 14 15 17 15 17 19 16 13 12 8 7 7 5 4 6 8 10 13 15
32 27 22 21 21 22 22 21 20 19 17 16 17 17 16 17 19 18 17 20 17 14 9 8 9 7 5 5 6 8 12 15 18
33 31 26 25 25 25 25 23 23 21 19 19 20 20 21 22 24 18 18 22 19 14 11 10 9 8 5 4 5 7 11 15 19
36 35 32 30 28 26 27 27 27 25 22 21 21 23 25 25 28 24 21 24 24 16 12 11 11 11 7 3 3 5 9 13 17
39 37 36 35 32 32 33 32 31 29 25 21 20 15 26 29 32 32 25 27 29 21 15 14 14 11 8 4 1 3 8 12 15
44 39 39 40 39 36 36 36 35 30 29 29 19 13 13 26 34 34 31 31 31 28 21 18 16 14 11 7 4 4 7 11 14
47 45 43 42 42 43 40 41 39 37 35 35 40 31 14 15 13 39 37 34 35 32 29 23 20 18 15 12 8 8 9 10 13
49 50 49 50 49 46 45 46 45 42 41 43 40 43 42 32 27 15 35 39 34 35 34 29 25 21 20 17 14 13 12 12 14
Wind_Direction_500mb
116 113 108 104 104 100 102 107 117 115 118 120 106 112 103 102 94 100 101 94 98 90 82 90 88 90 88 85 82 85 88 100 109
113 107 104 98 97 99 105 117 130 134 126 119 110 111 107 100 97 89 97 96 93 93 103 92 89 88 87 90 86 81 80 77 70
111 103 99 94 93 93 98 104 111 118 117 112 111 108 99 95 92 90 94 94 101 94 95 95 92 91 83 84 83 80 77 78 75
116 109 102 99 94 96 99 104 106 107 115 111 113 106 105 98 93 88 81 84 87 90 93 93 91 88 86 86 81 75 71 67 63
118 114 106 100 103 107 107 109 113 115 117 111 105 104 94 96 92 86 81 79 80 84 89 87 85 86 81 78 75 70 65 60 55
133 123 116 116 122 121 119 124 119 114 117 119 112 110 107 104 97 91 87 81 83 87 92 93 97 93 89 82 79 75 71 67 61
147 135 136 141 140 145 148 146 143 130 123 122 122 119 119 115 108 105 102 99 98 103 111 106 101 97 89 83 76 70 66 58 54
166 159 157 158 162 166 164 155 153 146 143 136 132 132 130 128 119 121 122 122 122 122 119 114 105 97 91 79 70 62 53 44 38
193 174 169 178 175 182 175 169 165 157 158 149 149 143 140 136 131 131 136 135 135 128 118 102 97 92 79 69 61 54 46 39 32
201 194 189 194 189 191 183 181 179 173 171 162 159 154 156 145 142 140 141 138 136 126 116 102 94 88 81 68 55 43 33 23 17
218 213 203 196 196 195 188 187 188 188 185 178 174 172 170 157 153 153 151 145 139 131 119 112 103 92 77 64 50 38 21 9 1
224 216 204 203 205 203 201 205 204 200 194 191 190 190 187 175 164 159 158 152 144 132 129 122 117 110 103 80 59 40 20 9 359
223 217 207 210 212 211 213 214 213 213 208 205 210 209 201 191 180 173 167 159 147 144 138 138 152 149 149 105 64 40 21 13 3
224 222 216 218 218 217 221 220 222 224 221 220 226 223 212 198 190 186 171 167 165 161 162 164 167 161 151 102 68 39 22 13 5
227 225 223 224 225 224 226 227 228 229 230 230 230 225 213 198 189 192 183 181 181 175 177 176 175 175 160 121 66 35 19 10 1
233 230 228 231 231 231 230 230 233 233 233 236 234 224 216 206 200 209 206 196 194 190 190 190 193 190 179 147 71 19 11 4 355
237 234 233 235 235 233 234 234 236 235 232 228 224 229 226 217 210 211 207 202 205 204 203 205 207 199 199 193 197 343 355 349 350
241 240 238 237 237 237 239 239 238 238 236 227 217 217 230 216 220 219 213 209 211 215 218 218 217 211 213 216 235 294 322 334 342
246 245 243 241 241 240 240 241 240 239 237 237 231 231 240 219 240 226 221 220 216 219 225 226 224 219 221 224 244 272 294 316 327
251 251 249 245 241 241 241 243 243 242 240 240 241 240 245 242 244 249 227 231 225 224 227 230 229 228 229 232 244 258 275 296 308
Wind_Speed_850mb
18 21 23 24 24 27 33 32 34 35 34 29 34 33 26 28 28 37 40 38 34 36 32 38 33 34 31 30 30 26 22 22 16
18 20 20 24 26 28 30 32 32 30 26 24 28 31 31 29 30 30 36 34 29 28 32 32 31 31 31 29 29 27 24 24 22
18 19 19 21 24 26 27 29 27 25 23 25 24 22 28 28 30 28 25 28 29 27 27 28 29 29 29 29 27 26 25 25 22
17 18 18 19 22 22 23 25 26 26 23 24 24 21 28 26 27 26 24 27 25 25 26 27 28 29 26 27 26 26 25 25 23
16 17 16 17 17 17 19 20 22 23 22 23 22 18 22 22 24 23 20 22 22 22 23 24 25 23 24 24 24 23 23 23 22
16 14 14 14 13 13 15 16 18 18 18 20 20 18 17 18 20 19 18 17 17 17 17 21 21 21 23 21 21 21 21 19 19
15 14 13 13 13 12 14 16 16 16 15 16 17 17 16 16 18 16 16 15 13 13 14 18 20 21 22 20 21 22 20 19 19
14 14 13 12 13 13 12 13 15 16 16 16 16 16 16 16 15 14 14 14 13 13 15 17 20 21 20 20 20 21 21 21 20
16 15 12 11 11 12 12 13 14 17 17 17 17 16 16 17 15 13 13 15 16 16 16 18 18 19 19 18 18 18 19 19 19
15 12 13 12 12 12 12 14 14 16 15 15 14 14 12 13 14 14 14 14 15 16 16 16 15 16 15 14 15 15 16 16 17
18 18 16 14 14 13 13 14 15 16 16 16 14 14 14 14 13 14 15 16 16 16 15 13 11 11 10 10 10 10 11 11 12
24 22 17 15 15 16 16 17 17 17 17 16 16 15 13 15 16 15 16 18 17 14 14 11 8 7 5 5 5 7 9 10 12
30 26 20 18 18 18 19 19 18 17 16 15 16 15 14 15 17 15 17 19 16 13 12 8 7 7 5 4 6 8 10 13 15
32 27 22 21 21 22 22 21 20 19 17 16 17 17 16 17 19 18 17 20 17 14 9 8 9 7 5 5 6 8 12 15 18
33 31 26 25 25 25 25 23 23 21 19 19 20 20 21 22 24 18 18 22 19 14 11 10 9 8 5 4 5 7 11 15 19
36 35 32 30 28 26 27 27 27 25 22 21 21 23 25 25 28 24 21 24 24 16 12 11 11 11 7 3 3 5 9 13 17
39 37 36 35 32 32 33 32 31 29 25 21 20 15 26 29 32 32 25 27 29 21 15 14 14 11 8 4 1 3 8 12 15
44 39 39 40 39 36 36 36 35 30 29 29 19 13 13 26 34 34 31 31 31 28 21 18 16 14 11 7 4 4 7 11 14
47 45 43 42 42 43 40 41 39 37 35 35 40 31 14 15 13 39 37 34 35 32 29 23 20 18 15 12 8 8 9 10 13
49 50 49 50 49 46 45 46 45 42 41 43 40 43 42 32 27 15 35 39 34 35 34 29 25 21 20 17 14 13 12 12 14
Wind_Direction_850mb
116 113 108 104 104 100 102 107 117 115 118 120 106 112 103 102 94 100 101 94 98 90 82 90 88 90 88 85 82 85 88 100 109
113 107 104 98 97 99 105 117 130 134 126 119 110 111 107 100 97 89 97 96 93 93 103 92 89 88 87 90 86 81 80 77 70
111 103 99 94 93 93 98 104 111 118 117 112 111 108 99 95 92 90 94 94 101 94 95 95 92 91 83 84 83 80 77 78 75
116 109 102 99 94 96 99 104 106 107 115 111 113 106 105 98 93 88 81 84 87 90 93 93 91 88 86 86 81 75 71 67 63
118 114 106 100 103 107 107 109 113 115 117 111 105 104 94 96 92 86 81 79 80 84 89 87 85 86 81 78 75 70 65 60 55
133 123 116 116 122 121 119 124 119 114 117 119 112 110 107 104 97 91 87 81 83 87 92 93 97 93 89 82 79 75 71 67 61
147 135 136 141 140 145 148 146 143 130 123 122 122 119 119 115 108 105 102 99 98 103 111 106 101 97 89 83 76 70 66 58 54
166 159 157 158 162 166 164 155 153 146 143 136 132 132 130 128 119 121 122 122 122 122 119 114 105 97 91 79 70 62 53 44 38
193 174 169 178 175 182 175 169 165 157 158 149 149 143 140 136 131 131 136 135 135 128 118 102 97 92 79 69 61 54 46 39 32
201 194 189 194 189 191 183 181 179 173 171 162 159 154 156 145 142 140 141 138 136 126 116 102 94 88 81 68 55 43 33 23 17
218 213 203 196 196 195 188 187 188 188 185 178 174 172 170 157 153 153 151 145 139 131 119 112 103 92 77 64 50 38 21 9 1
224 216 204 203 205 203 201 205 204 200 194 191 190 190 187 175 164 159 158 152 144 132 129 122 117 110 103 80 59 40 20 9 359
223 217 207 210 212 211 213 214 213 213 208 205 210 209 201 191 180 173 167 159 147 144 138 138 152 149 149 105 64 40 21 13 3
224 222 216 218 218 217 221 220 222 224 221 220 226 223 212 198 190 186 171 167 165 161 162 164 167 161 151 102 68 39 22 13 5
227 225 223 224 225 224 226 227 228 229 230 230 230 225 213 198 189 192 183 181 181 175 177 176 175 175 160 121 66 35 19 10 1
233 230 228 231 231 231 230 230 233 233 233 236 234 224 216 206 200 209 206 196 194 190 190 190 193 190 179 147 71 19 11 4 355
237 234 233 235 235 233 234 234 236 235 232 228 224 229 226 217 210 211 207 202 205 204 203 205 207 199 199 193 197 343 355 349 350
241 240 238 237 237 237 239 239 238 238 236 227 217 217 230 216 220 219 213 209 211 215 218 218 217 211 213 216 235 294 322 334 342
246 245 243 241 241 240 240 241 240 239 237 237 231 231 240 219 240 226 221 220 216 219 225 226 224 219 221 224 244 272 294 316 327
251 251 249 245 241 241 241 243 243 242 240 240 241 240 245 242 244 249 227 231 225 224 227 230 229 228 229 232 244 258 275 296 308